LIPX Weather Reports


time (UTC)temp
F
wind
direction
speed
knots
gust
knots
rain 1hr
in
rain 24hr
in
rain mn
in
humidity
%
barometer
mb
20260503053004 52 350 2.6 0.0 0.00 0.00 0.00 62 1019.0
20260503051504 52 350 2.6 0.0 0.00 0.00 0.00 62 1019.0
20260503050005 52 350 2.6 0.0 0.00 0.00 0.00 62 1019.0
20260503044504 52 360 4.3 0.0 0.00 0.00 0.00 12 1019.0
20260503043004 52 360 4.3 0.0 0.00 0.00 0.00 12 1019.0
20260503041504 50 340 4.3 0.0 0.00 0.00 0.00 71 1019.0
20260503040005 50 340 5.2 0.0 0.00 0.00 0.00 71 1019.0
20260503034504 50 340 5.2 0.0 0.00 0.00 0.00 71 1019.0
20260503033004 50 340 5.2 0.0 0.00 0.00 0.00 71 1019.0
20260503023004 54 10 4.3 0.0 0.00 0.00 0.00 62 1019.0
20260503013005 54 360 4.3 0.0 0.00 0.00 0.00 62 1020.0
20260503004504 54 330 6.1 0.0 0.00 0.00 0.00 62 1020.0
20260503003004 54 330 6.1 0.0 0.00 0.00 0.00 62 1020.0
20260503001504 54 350 4.3 0.0 0.00 0.00 0.00 66 1020.0
20260503000004 54 350 4.3 0.0 0.00 0.00 0.00 66 1020.0
20260502230004 55 360 4.3 0.0 0.00 0.00 0.00 62 1021.0
20260502224503 55 350 4.3 0.0 0.00 0.00 0.00 62 1020.0
20260502221504 57 10 4.3 0.0 0.00 0.00 0.00 58 1020.0
20260502220006 57 10 4.3 0.0 0.00 0.00 0.00 58 1020.0
20260502214504 57 10 4.3 0.0 0.00 0.00 0.00 58 1020.0
20260502213005 57 10 4.3 0.0 0.00 0.00 0.00 58 1020.0
20260502211504 59 0 1.7 0.0 0.00 0.00 0.00 54 1021.0
20260502203004 61 250 1.7 0.0 0.00 0.00 0.00 51 1020.0
20260502201503 63 240 1.7 0.0 0.00 0.00 0.00 48 1020.0
20260502200004 63 240 1.7 0.0 0.00 0.00 0.00 48 1020.0
20260502194503 66 220 2.6 0.0 0.00 0.00 0.00 39 1020.0
20260502193004 66 220 2.6 0.0 0.00 0.00 0.00 39 1020.0
20260502184504 72 230 5.2 0.0 0.00 0.00 0.00 30 1020.0
20260502163004 75 0 5.2 0.0 0.00 0.00 0.00 25 1021.0
20260502161503 75 230 6.1 0.0 0.00 0.00 0.00 25 1021.0
20260502123004 73 230 7.8 0.0 0.00 0.00 0.00 27 1024.0
20260502121504 73 230 6.1 0.0 0.00 0.00 0.00 27 1024.0
20260502114504 73 0 5.2 0.0 0.00 0.00 0.00 25 1024.0
20260502111503 72 260 7.0 0.0 0.00 0.00 0.00 26 1025.0
20260502110004 72 260 7.0 0.0 0.00 0.00 0.00 26 1025.0
20260502104504 72 280 6.1 0.0 0.00 0.00 0.00 24 1025.0
20260502103004 72 280 6.1 0.0 0.00 0.00 0.00 24 1025.0
20260502101504 72 290 5.2 0.0 0.00 0.00 0.00 26 1025.0
20260502091504 68 280 5.2 0.0 0.00 0.00 0.00 34 1026.0
20260502071505 57 330 2.6 0.0 0.00 0.00 0.00 54 1026.0
20260502070004 57 330 2.6 0.0 0.00 0.00 0.00 54 1026.0
20260502064504 54 330 2.6 0.0 0.00 0.00 0.00 58 1026.0
20260502063004 54 330 2.6 0.0 0.00 0.00 0.00 58 1026.0
20260502061503 50 330 2.6 0.0 0.00 0.00 0.00 71 1026.0
20260502060004 50 330 2.6 0.0 0.00 0.00 0.00 71 1026.0